Tracking 19720 objects as of 26-Jun-2019
HD Live streaming from Space Station
objects crossing your sky now

SL-16 DEB

Track SL-16 DEB now!
10-day predictions


NORAD ID: 28356
Int'l Code: 2004-021E
Perigee: 847.0 km
Apogee: 1,175.3 km
Inclination: 71.1 °
Period: 105.2 minutes
Semi major axis: 7382 km
RCS: 0.0834 m2 (small)
Launch date: June 10, 2004
Source: Commonwealth of Independent States (former USSR) (CIS)
Launch site: TYURATAM MISSILE AND SPACE COMPLEX (TTMTR)

Note: This is SATELLITE DEBRIS
aabbcc
Your satellite tracking list
Your tracking list is empty




NASA's NSSDC Master Catalog

Two Line Element Set (TLE):
1 28356U 04021E   19176.29398056 +.00000064 +00000-0 +10450-3 0  9990
2 28356 071.0631 124.1926 0222348 223.7480 291.2663 13.68761927750805
Source of the keplerian elements: AFSPC